Regional Weather Roundup
Issued by NWS Cleveland, OH

Home | Current Version | Previous Version | Text Only | Print | Product List | Glossary Off
Versions: 1 2 3 4 5 6 7 8 9 10 11 12 13 14 15 16 17 18 19 20 21 22 23 24 25 26 27 28 29 30 31 32 33 34 35 36 37 38 39 40 41 42 43 44 45 46 47 48 49 50

000
ASUS41 KCLE 200910
RWRCLE
OHIO REGIONAL WEATHER ROUNDUP
NATIONAL WEATHER SERVICE CLEVELAND, OH
500 AM EDT WED AUG 20 2014

NOTE: "FAIR" INDICATES FEW OR NO CLOUDS BELOW 12,000 FEET WITH NO
SIGNIFICANT WEATHER AND/OR OBSTRUCTIONS TO VISIBILITY.

OHZ001>008-015>018-024>027-034-035-043-044-201000-
   NORTHWEST OHIO

CITY           SKY/WX    TMP DP  RH WIND       PRES   REMARKS
DEFIANCE       MOCLDY    68  65  90 S6        29.81R
FINDLAY        CLOUDY    68  65  90 S9        29.82R
TOLEDO EXPRESS MOCLDY    66  65  96 S5        29.80R
TOLEDO EXEC    CLOUDY    66  64  93 S6        29.81S
LIMA           CLOUDY    70  66  87 SW6       29.84R
$$

OHZ009>014-019>023-028>033-038-089-201000-
   NORTHEAST OHIO

CITY           SKY/WX    TMP DP  RH WIND       PRES   REMARKS
CLE-HOPKINS    CLOUDY    67  64  90 SE9       29.83F THUNDER
CLE-LAKEFRONT  CLOUDY    68  64  87 SE12      29.81S
CUY CO. ARPT   NOT AVBL
LORAIN-ELYRIA  LGT RAIN  69  65  86 S7        29.83S FOG
ASHTABULA      LGT RAIN  65  63  93 S8        29.86S
AKRON-CANTON   TSTM      67  64  90 SE13      29.87F
WOOSTER        CLOUDY    66  64  93 S6        29.85F FOG
MANSFIELD      TSTM      66  66 100 S8        29.86F
YOUNGSTOWN     TSTM      65  63  93 SE10      29.88F
$$

OHZ042-051>053-060>062-070>072-077>081-201000-
  SOUTHWEST OHIO

CITY           SKY/WX    TMP DP  RH WIND       PRES   REMARKS
CINC-COVINGTON MOCLDY    65  62  90 S6        29.88R
CINC-LUNKEN    CLOUDY    66  65  96 CALM      29.87S
HAMILTON       CLOUDY    66  65  96 CALM      29.88R
DAYTON         CLOUDY    69  64  84 S7        29.88R
WRIGHT-PAT AFB CLOUDY    67  65  93 SW5       29.87R
DAYTON GENERAL CLOUDY    66  64  93 S5        29.87R
WILMINGTON     CLOUDY    65  63  93 VRB3      29.87F
$$

OHZ036-037-039>041-045>050-054>059-063>069-073>076-082>088-201000-
  CENTRAL AND SOUTHEAST OHIO

CITY           SKY/WX    TMP DP  RH WIND       PRES   REMARKS
COLUMBUS       RAIN      75  70  84 W8        29.86R
OSU AIRPORT    LGT RAIN  72  68  87 SW10      29.86R
BOLTON FIELD   LGT RAIN  70  67  91 SW9       29.87R
RICKENBACK AFB CLOUDY    71  66  82 SW6       29.84S
NEWARK         LGT RAIN  73  69  87 SW8       29.84S FOG
MARION         CLOUDY    67  65  93 S6        29.83F
LANCASTER      TSTM      73  70  90 SW7       29.86R FOG
ZANESVILLE     CLOUDY    73  69  87 SW5       29.84S
NEW PHILLY     TSTM      66  65  96 SE10      29.87S
$$



USA.gov is the U.S. government's official web portal to all federal, state and local government web resources and services.